Wind_Speed
42 42 42 43 43 43 42 42 42 42 41 40 39 39 38 38 37 37 36 35 34 33 32 31 30 29 29 29 29 29 28 27 28 29 31 35 38 39 41 43 44 44 43 42 42 41 40 39 38 38 38 38 38 37 36 35 34 33 32 30 28 27 27 26 27 29 29 32 32 29 28 27 26 25 26 27 28 28 28 28 29 29 28 27 28 29 30 33
42 42 43 43 43 43 42 42 42 42 41 41 40 40 40 40 39 39 39 38 37 36 35 34 33 32 31 30 31 31 31 30 30 28 28 33 35 35 37 40 43 45 45 45 45 43 42 41 40 39 38 38 38 38 38 37 36 35 33 29 30 31 30 29 29 30 28 30 30 27 28 30 31 30 29 29 29 29 29 29 30 29 28 28 29 29 30 32
42 43 43 43 43 43 43 43 43 43 42 42 42 42 42 41 41 41 41 41 40 38 38 37 36 35 34 33 32 32 33 33 32 30 29 31 33 34 34 36 40 42 44 46 46 45 44 44 42 41 40 39 38 38 38 38 37 37 36 33 34 35 36 37 35 33 32 32 32 32 33 34 36 35 31 30 31 31 31 32 31 30 29 28 29 30 31 32
43 43 44 44 44 44 44 44 44 44 43 43 43 43 43 43 43 43 43 43 42 41 40 39 39 38 37 36 35 34 34 35 35 33 32 32 33 33 33 34 36 40 41 43 45 46 45 45 45 44 42 40 39 39 38 38 37 37 38 39 38 38 40 42 39 37 37 37 37 37 37 36 37 36 32 32 32 32 33 34 32 29 28 28 29 30 31 31
44 44 45 45 45 45 45 46 45 45 45 45 45 45 45 45 45 45 45 45 45 44 43 42 41 40 40 39 38 37 36 37 37 37 36 35 34 33 33 34 34 37 39 40 41 43 44 45 46 45 44 43 41 40 40 39 39 39 39 41 42 43 43 41 39 39 39 40 41 41 39 38 39 37 34 33 31 33 32 29 29 29 29 30 30 30 30 29
45 46 46 46 47 47 47 47 47 46 46 46 47 47 47 47 47 47 47 47 47 46 46 45 44 43 42 42 41 40 39 39 39 40 39 38 37 35 34 35 35 36 37 38 38 40 42 42 43 44 44 44 43 43 42 41 40 40 41 41 43 47 45 41 38 39 40 40 40 40 39 38 39 37 34 32 29 30 30 29 30 31 31 31 30 29 29 27
47 47 48 48 48 48 48 48 48 48 48 48 48 48 48 48 49 49 49 49 49 49 48 48 47 46 45 44 44 42 42 42 42 42 42 41 40 38 37 37 37 36 37 37 37 37 38 39 39 41 42 43 43 43 43 43 43 43 43 43 44 46 46 43 41 39 39 39 37 38 38 36 36 34 32 31 27 27 32 34 34 33 32 32 30 28 27 25
49 49 49 50 50 50 50 50 50 50 49 49 49 50 49 50 50 51 51 51 51 51 51 51 50 49 48 47 47 45 45 45 44 44 44 44 43 41 40 39 39 38 38 38 38 36 36 37 37 38 39 40 40 41 42 43 43 44 44 44 45 46 45 44 43 40 39 38 36 36 37 35 34 33 31 30 28 29 32 32 32 33 33 30 28 27 25 23
51 51 51 51 51 52 52 52 52 51 51 51 51 51 51 51 51 52 52 52 53 53 53 53 53 52 51 50 49 48 48 48 47 47 47 46 45 44 43 42 41 41 40 39 38 38 37 36 35 35 35 35 37 39 40 41 42 44 45 46 46 46 46 44 42 39 36 36 36 35 34 32 32 32 31 29 27 29 30 29 31 33 31 27 26 25 24 21
54 53 53 53 53 53 53 53 53 53 53 53 53 53 53 53 53 53 53 54 54 54 54 55 55 55 54 53 52 51 51 51 50 49 49 49 48 47 46 45 44 43 43 41 40 40 38 35 33 33 33 34 35 37 39 40 41 42 44 45 46 46 45 45 43 39 35 34 35 34 32 29 29 31 31 29 28 28 28 29 30 30 27 25 24 23 22 19
56 56 56 55 55 55 55 55 55 55 55 55 55 54 54 55 55 55 55 55 55 55 56 56 56 56 56 55 54 54 54 54 53 52 52 52 51 49 48 48 47 46 45 44 43 41 39 37 35 34 35 35 35 36 39 39 39 40 42 44 45 45 45 44 44 41 39 37 36 34 30 28 30 31 32 30 28 26 26 28 27 25 26 25 23 22 20 16
59 59 59 58 58 58 57 57 57 57 57 56 56 56 56 56 56 56 56 57 57 57 57 57 58 58 58 57 57 57 56 56 56 55 54 54 54 52 50 49 49 49 48 47 46 44 42 40 38 37 36 36 36 35 36 37 36 38 40 41 43 44 43 43 42 41 41 39 37 34 30 28 29 31 31 29 26 24 23 26 26 25 25 22 21 20 18 15
62 62 62 61 61 61 61 60 60 60 59 59 58 58 58 58 58 58 58 58 58 58 59 58 59 59 59 59 59 59 58 59 58 58 57 57 56 55 53 52 51 52 51 50 48 46 44 43 42 40 38 38 36 33 36 37 35 35 36 37 39 40 40 40 40 40 39 39 38 35 31 29 29 30 29 27 26 24 23 24 25 24 21 19 18 17 16 15
66 65 65 65 65 65 64 64 63 63 62 62 61 61 60 61 60 60 60 60 60 60 60 60 60 60 60 60 60 60 60 61 60 60 60 59 59 58 56 55 54 54 53 52 51 49 48 47 45 42 41 41 37 36 39 37 34 34 34 34 35 37 36 36 37 37 36 37 36 35 34 31 29 28 26 26 27 26 22 22 23 20 17 17 17 15 15 15
69 69 69 69 69 68 68 67 67 66 65 65 64 63 63 63 63 63 62 62 62 62 62 61 61 61 61 61 61 62 62 62 62 62 62 61 61 60 59 58 56 56 55 54 53 52 51 49 48 45 45 43 39 40 41 36 34 35 34 34 34 33 32 32 33 32 32 33 31 31 31 29 28 26 26 26 27 24 20 18 18 16 16 16 15 15 15 14
71 71 71 72 72 72 72 71 70 70 69 68 68 67 67 66 66 66 65 65 65 64 64 64 63 63 63 63 63 63 63 63 63 64 63 63 63 62 62 61 59 58 57 56 55 55 54 52 50 49 48 46 43 44 42 37 36 36 36 36 33 31 30 29 28 27 28 27 26 27 27 28 28 27 26 26 25 21 17 16 14 13 16 16 15 16 15 14
72 72 72 73 74 74 74 74 74 73 73 72 72 71 71 70 70 69 69 69 68 67 67 66 66 65 65 64 64 64 64 64 65 65 65 64 64 64 64 63 62 61 59 59 57 57 56 54 53 52 51 49 46 46 43 40 40 39 39 39 35 33 29 27 26 25 25 23 22 24 25 26 26 25 27 27 25 21 18 17 13 13 18 17 17 18 15 14
72 72 73 74 74 75 75 76 76 75 75 75 75 74 74 74 74 74 73 73 72 71 70 70 69 68 67 67 66 66 66 66 66 67 67 66 66 66 66 65 64 63 62 61 59 59 58 57 56 55 53 51 49 48 45 44 45 43 43 42 36 32 29 28 26 24 22 20 20 21 22 24 24 26 27 26 24 21 20 17 13 16 21 18 18 18 15 13
73 73 73 74 75 75 76 76 77 77 76 76 76 76 77 77 77 77 77 76 76 75 74 73 73 72 71 70 69 69 68 68 68 68 68 68 68 68 67 66 66 64 64 63 62 60 59 59 58 56 55 55 54 53 50 50 49 45 45 43 37 33 30 29 26 23 21 18 18 19 20 22 25 25 25 25 23 21 21 17 14 18 22 20 20 17 15 13
73 74 74 74 75 76 76 77 77 78 78 77 77 77 78 78 78 79 79 79 79 79 78 77 77 75 74 74 73 72 71 71 70 69 69 69 69 69 69 68 67 66 65 65 64 62 62 60 58 57 59 61 60 57 54 53 50 47 46 45 41 36 33 31 28 25 22 20 20 20 20 21 25 26 24 24 23 23 23 21 19 23 24 22 21 17 14 13
74 74 74 75 76 77 77 78 78 79 79 79 79 79 79 79 79 80 80 81 81 81 81 81 80 79 78 78 77 76 75 74 73 72 71 71 71 71 70 70 68 68 67 67 66 64 63 60 58 61 64 64 62 60 57 55 51 49 49 48 45 40 35 33 30 27 25 23 22 22 21 22 25 26 26 26 25 25 24 22 24 28 27 25 22 17 15 13
75 75 75 75 76 77 78 78 79 80 80 80 80 80 80 80 80 81 81 82 82 82 83 83 83 82 82 82 81 81 80 78 77 76 75 74 73 72 72 71 70 69 69 69 67 66 64 61 61 65 67 66 64 62 60 57 54 53 53 51 48 45 39 36 33 31 28 26 25 24 24 25 25 26 27 27 27 26 25 25 31 32 29 26 21 17 16 15
76 76 77 76 77 77 78 79 79 80 81 81 81 82 82 82 82 82 82 83 83 83 84 84 84 84 84 84 84 84 84 83 82 80 79 78 76 75 74 74 73 72 71 70 69 68 65 64 66 69 68 67 66 65 63 61 57 57 56 53 51 49 44 40 38 35 33 31 28 26 25 25 25 25 27 27 26 25 26 30 36 36 31 26 21 18 16 14
75 76 77 77 78 78 79 80 80 80 81 81 82 83 83 84 84 84 84 84 85 85 85 85 85 85 85 85 86 86 87 86 86 85 84 82 80 78 78 77 75 74 73 71 70 69 68 68 69 70 69 68 67 67 66 64 61 60 60 57 55 52 48 44 41 39 37 33 28 26 26 25 24 24 27 28 27 26 30 34 35 33 29 26 23 20 16 13
74 75 76 76 77 78 80 81 81 81 82 82 83 83 84 84 85 85 86 86 87 86 87 87 86 86 86 86 87 87 88 88 88 88 87 86 85 83 82 81 79 77 76 74 73 71 70 71 71 70 69 68 68 67 67 67 65 63 62 60 58 56 52 48 44 42 40 36 33 31 29 27 26 25 25 27 28 30 33 34 32 30 28 26 23 19 14 13
72 73 74 75 75 76 77 79 80 81 81 82 83 83 84 85 85 86 86 88 88 87 89 89 88 88 88 88 88 89 89 88 89 90 90 90 89 87 86 85 83 82 79 78 76 73 72 72 73 72 71 69 69 69 69 69 68 65 64 63 62 59 55 51 48 45 42 41 39 35 33 31 29 26 25 26 30 33 34 33 32 32 30 27 22 17 14 16
72 73 73 74 74 74 74 75 78 79 79 81 83 84 85 85 86 86 86 88 88 87 90 91 90 91 90 90 91 91 90 90 90 90 90 91 91 91 90 89 88 86 83 81 78 76 75 74 74 74 72 71 70 70 70 71 70 68 68 67 65 62 59 55 51 47 46 45 42 37 36 33 30 28 26 26 29 34 35 34 32 30 29 27 24 20 20 20
74 74 74 74 74 73 73 74 76 77 79 81 82 83 84 84 86 86 86 88 87 85 89 91 91 92 92 92 93 92 91 91 91 91 91 92 92 93 93 92 91 90 87 84 82 80 79 78 77 76 74 73 71 72 73 74 71 70 71 70 67 65 62 60 56 51 50 49 44 40 38 35 32 31 30 28 29 31 32 31 29 27 28 27 26 26 25 23
73 74 75 75 75 75 75 76 78 79 80 81 81 82 82 83 84 84 85 87 86 85 88 89 90 91 92 94 95 95 94 93 92 92 92 93 93 94 94 93 94 93 91 89 87 86 83 82 82 79 76 74 73 75 77 75 72 72 74 72 70 67 65 64 61 56 54 50 46 43 40 38 37 36 34 32 31 31 31 30 30 31 30 27 27 26 24 23
69 71 72 73 74 74 75 77 78 79 80 80 80 81 81 82 83 84 85 85 85 86 86 86 88 90 91 93 94 95 96 95 95 95 95 95 94 95 95 95 95 95 94 92 91 90 88 87 86 82 77 76 76 78 79 76 74 74 74 72 72 71 70 69 65 61 58 50 47 46 43 42 42 39 37 35 34 35 33 30 30 31 31 28 27 26 25 24
62 65 67 68 69 70 71 73 75 76 76 77 78 79 80 81 82 84 84 85 85 85 85 85 87 88 89 91 92 93 95 96 97 98 97 97 97 96 97 97 97 96 95 94 93 94 93 91 89 86 82 80 79 79 79 77 74 75 75 73 74 75 74 73 68 65 58 51 50 50 46 46 45 42 40 38 38 38 36 33 31 30 30 29 29 28 27 25
53 57 60 63 64 65 66 68 70 71 71 72 73 74 75 76 79 80 81 83 84 83 84 85 85 86 87 89 89 91 93 95 97 99 99 100 100 99 99 99 98 96 97 97 97 97 96 94 93 91 88 85 83 82 81 79 76 76 77 75 75 77 77 75 71 67 59 54 54 53 51 49 47 45 45 43 42 41 39 37 34 32 31 30 31 30 27 25
44 47 50 53 56 58 60 61 63 65 65 66 67 68 69 70 72 74 75 77 78 78 81 83 83 84 85 86 86 88 91 92 94 97 99 101 102 101 101 101 99 98 100 100 98 98 97 96 96 95 93 90 86 85 84 81 78 78 79 78 76 78 79 76 73 69 63 58 59 59 56 52 49 49 49 47 46 44 42 40 38 36 33 31 32 30 28 26
40 41 42 43 45 48 50 52 55 58 59 60 62 62 63 65 66 68 69 70 72 74 76 78 80 82 83 83 84 86 88 88 91 95 97 100 102 103 103 102 100 100 102 102 100 99 99 98 98 99 97 94 91 89 87 85 83 83 82 81 79 79 80 77 74 72 67 63 63 63 59 54 51 53 53 51 50 48 46 44 41 38 35 33 32 31 30 28
40 40 39 40 40 40 41 43 46 49 52 54 57 57 58 60 61 63 64 65 67 69 71 74 77 78 80 81 82 84 86 85 88 91 94 97 101 102 102 102 103 103 104 104 103 102 101 101 101 102 100 98 95 94 93 90 88 86 86 85 82 80 80 79 76 75 72 68 67 65 62 57 55 57 57 55 53 51 49 47 44 41 38 36 34 33 33 32
40 40 40 40 40 40 39 39 40 43 45 47 50 51 52 55 57 58 60 61 64 66 68 70 72 74 77 78 80 82 82 83 86 89 92 94 97 99 99 102 105 105 106 106 105 104 103 103 105 103 100 98 97 96 97 95 91 89 88 86 82 80 81 81 78 76 75 72 69 67 66 62 60 60 60 56 54 53 52 51 48 45 42 40 38 36 35 34
39 40 40 40 41 41 41 41 41 42 43 43 45 47 48 50 52 53 55 57 58 61 64 66 68 70 73 75 76 77 80 82 84 87 89 90 92 94 95 100 104 106 107 107 107 106 105 106 107 104 99 98 98 98 100 100 95 93 92 89 85 83 83 83 80 78 77 74 71 69 68 65 62 61 61 58 56 56 56 55 53 49 47 44 41 38 37 37
36 37 37 39 40 40 41 42 43 43 44 44 45 47 47 49 50 51 53 54 55 58 60 62 63 65 69 70 70 71 77 80 79 83 87 87 88 90 91 96 100 103 106 108 109 108 106 108 109 105 100 99 101 102 103 103 100 97 96 93 90 87 86 85 82 79 77 75 74 73 70 68 65 62 62 61 60 60 61 59 56 53 51 48 44 41 39 39
33 34 34 35 37 38 40 41 42 43 43 44 45 47 47 49 50 51 52 53 55 56 58 60 61 62 65 66 66 68 73 75 74 79 84 84 85 87 89 92 96 99 103 106 109 109 108 110 111 106 102 102 105 106 104 103 103 102 100 97 94 90 88 87 84 80 78 78 77 76 73 70 68 65 65 65 65 65 65 63 59 56 54 51 50 47 44 43
31 32 32 33 34 36 37 38 40 41 41 42 43 45 46 47 48 50 51 52 54 55 56 58 59 61 62 63 66 66 68 72 73 75 79 81 82 84 87 90 92 96 100 104 108 109 110 112 111 108 106 107 108 108 105 104 105 105 104 101 96 92 88 87 85 82 81 80 79 78 74 71 70 68 67 69 69 67 67 65 62 59 57 54 52 50 49 47
30 31 31 31 32 33 34 36 37 38 39 40 42 43 44 46 46 48 49 50 52 53 54 55 57 58 59 61 64 64 65 70 73 73 76 78 80 81 84 86 89 92 96 101 106 109 111 112 111 110 110 109 109 109 106 105 106 107 107 104 99 94 91 89 87 83 81 81 80 80 77 73 73 71 69 72 73 70 69 68 65 62 60 57 54 53 52 50
30 29 30 29 30 31 32 33 35 36 37 39 40 41 43 44 46 47 48 49 50 51 53 53 54 56 58 59 61 63 64 67 70 72 74 76 78 79 79 82 86 90 95 101 105 107 108 110 111 112 111 111 110 110 108 107 108 111 111 108 104 101 97 94 90 85 82 82 81 81 79 78 78 73 69 72 75 72 70 69 67 65 62 60 57 55 53 52
29 29 29 29 29 29 30 32 33 34 36 37 39 40 42 43 45 46 47 48 49 50 51 52 52 55 57 57 59 62 63 64 67 70 72 74 77 76 76 80 85 89 94 99 103 104 105 108 112 113 114 113 112 112 110 108 109 112 112 110 107 105 102 98 94 90 88 86 84 83 81 81 80 74 70 73 76 74 71 70 70 68 65 62 59 57 55 54
29 29 29 29 28 29 29 31 32 33 35 36 37 39 41 42 43 44 46 47 48 48 50 50 51 54 56 56 58 60 62 63 65 68 71 72 73 73 73 78 84 88 91 96 99 100 102 106 110 113 115 115 113 113 111 110 112 111 109 109 107 104 103 101 97 95 92 88 86 85 82 81 80 75 72 74 75 77 75 73 72 70 67 64 62 59 58 56
31 29 29 29 28 28 29 29 30 32 33 34 36 37 39 40 42 43 44 45 46 47 48 49 50 52 54 55 57 59 61 62 64 65 68 70 71 70 71 75 81 86 88 90 94 97 100 104 108 112 115 115 114 114 114 115 116 114 111 111 109 106 106 104 100 97 93 88 87 85 82 82 82 76 73 74 76 80 80 75 74 73 70 67 64 62 60 58
32 30 28 28 27 27 28 28 28 30 31 32 34 36 37 38 40 41 42 43 45 46 47 48 49 51 54 55 56 58 59 61 62 63 66 68 68 67 68 72 78 82 84 87 91 94 98 103 106 110 113 115 114 115 116 117 119 117 114 115 114 111 109 107 104 100 94 90 88 86 84 85 84 80 77 78 80 83 83 78 76 75 72 69 66 64 61 58
32 30 29 28 27 26 26 27 27 28 29 31 32 34 35 36 37 39 40 41 43 44 46 47 49 51 53 55 56 58 58 59 59 60 62 64 65 65 65 68 74 78 80 85 89 92 96 100 104 108 111 113 115 116 118 119 120 118 116 117 115 112 111 111 109 104 99 96 92 88 86 86 84 81 79 81 85 87 86 83 80 78 74 71 68 65 62 59
32 30 28 27 26 25 25 26 26 27 28 30 31 32 34 35 36 37 38 39 40 42 44 45 47 50 52 55 57 57 57 56 54 56 58 59 60 61 62 65 70 73 77 82 85 89 93 97 102 106 109 113 116 118 120 121 120 119 118 117 114 112 113 114 112 108 104 101 95 90 89 87 84 82 80 82 88 90 87 84 79 75 73 69 64 62 61 61
31 30 28 27 26 25 25 25 26 26 27 28 30 31 32 33 34 34 35 36 37 39 41 43 45 48 51 54 54 53 52 52 51 52 54 54 54 57 59 62 66 69 73 78 82 86 91 95 100 104 108 112 116 118 119 120 120 120 119 117 114 114 115 114 111 108 105 101 97 94 92 88 86 88 87 86 90 89 85 83 78 74 73 70 64 63 64 64
31 29 28 27 26 25 25 25 25 26 26 27 28 29 31 32 32 32 33 33 34 35 37 40 43 46 50 51 49 48 47 47 47 47 48 50 51 54 56 59 62 66 70 74 78 83 88 92 97 102 106 111 116 118 118 119 120 119 119 118 117 117 116 114 110 106 103 101 99 97 94 89 89 91 90 89 92 89 85 84 81 77 75 73 69 67 66 64
30 29 27 27 26 26 25 25 25 25 25 26 27 28 30 31 31 31 31 31 32 33 34 37 40 43 46 46 44 43 42 43 44 44 44 45 48 51 53 56 59 63 67 71 75 80 84 88 94 99 103 108 114 117 118 118 120 120 119 120 120 119 117 114 109 106 104 103 102 99 94 90 91 92 91 90 90 89 89 87 82 78 77 74 72 69 67 66
30 28 27 26 26 26 25 25 25 26 26 26 26 28 29 30 31 29 29 30 31 32 33 36 37 39 40 40 39 38 38 38 39 39 40 42 44 47 50 53 56 59 63 67 72 76 81 85 90 96 99 105 111 116 118 119 120 121 120 120 120 119 117 114 110 108 107 106 105 100 94 93 94 92 92 93 89 85 89 88 82 80 79 74 70 66 65 67
Wind_Direction
250 250 250 250 250 251 251 251 251 251 251 250 249 249 247 245 244 244 243 242 240 239 237 234 231 230 228 225 220 220 222 223 224 225 227 226 224 226 230 231 232 232 231 231 231 230 229 229 229 228 228 228 227 227 226 226 226 227 229 234 242 251 252 245 246 249 250 257 260 262 265 264 266 269 271 273 277 281 285 289 292 294 298 302 306 311 316 320
250 250 250 249 249 249 249 249 249 249 249 249 248 248 247 246 244 244 243 243 241 239 238 237 233 231 230 230 227 223 222 223 223 224 227 228 224 223 227 230 232 233 233 233 232 232 231 231 230 229 228 228 228 227 228 227 227 228 227 235 245 248 251 245 240 243 246 255 261 262 266 266 267 271 275 276 278 283 287 289 290 293 297 301 305 310 315 319
252 251 251 250 250 249 249 248 248 248 248 248 247 247 246 246 245 244 243 243 242 240 239 238 236 234 231 231 231 229 226 224 222 221 226 230 227 222 222 227 230 231 233 234 234 233 234 233 232 231 229 228 228 227 227 227 227 228 226 230 239 240 245 246 242 243 244 249 258 260 263 266 268 271 276 277 281 285 287 287 287 291 295 299 304 309 314 317
254 253 252 251 251 250 250 249 248 247 247 247 247 246 246 245 245 245 244 242 242 241 240 239 238 236 234 232 232 233 231 229 224 221 224 228 229 226 222 224 228 230 231 233 234 234 235 236 235 234 232 231 230 228 227 227 226 227 226 226 232 234 240 246 245 244 243 244 250 256 258 263 267 270 274 278 283 286 287 286 286 290 294 299 304 308 312 314
254 254 253 252 252 251 250 250 249 248 247 247 246 246 245 245 244 244 244 243 242 241 241 240 238 237 236 234 233 233 234 233 228 223 223 226 227 227 227 225 226 229 230 230 233 234 235 236 237 236 235 235 234 233 230 229 227 227 227 227 229 232 238 246 246 245 246 244 245 251 255 259 264 268 273 276 281 287 287 282 285 292 295 300 304 306 309 311
254 253 253 253 252 252 251 250 250 249 248 247 246 246 245 245 244 243 243 243 242 241 241 240 239 238 237 236 235 234 234 236 233 227 225 225 225 225 229 228 226 227 229 229 229 232 234 235 237 238 237 237 237 236 235 233 231 230 229 228 229 233 238 244 246 247 248 247 247 252 255 257 261 265 269 272 277 285 283 281 288 294 296 300 301 303 306 308
253 253 253 252 252 252 251 251 250 249 248 248 247 246 245 245 244 243 242 242 242 241 241 241 240 239 238 237 236 235 236 236 234 231 228 226 224 223 227 230 229 228 229 230 228 229 232 233 235 237 237 237 238 238 238 236 235 234 233 231 231 234 239 241 243 246 247 248 249 252 255 257 261 264 266 268 271 272 273 281 288 292 295 298 299 301 303 305
254 253 252 252 251 251 251 251 250 250 249 248 247 246 246 245 244 244 243 242 241 241 241 241 240 240 238 238 237 236 238 237 235 234 231 228 226 224 225 229 230 230 230 231 229 227 228 230 231 234 236 237 238 238 238 238 238 237 236 235 234 236 238 241 243 245 247 249 250 252 254 257 260 263 265 266 267 265 268 277 282 287 292 295 297 299 300 303
255 254 253 253 252 252 251 250 250 249 249 248 247 246 246 245 244 244 243 242 242 241 241 240 240 240 239 238 238 237 238 237 237 236 233 231 228 226 226 227 229 231 231 231 231 229 227 227 228 231 235 236 237 238 238 237 237 238 237 237 237 238 239 241 243 245 248 251 252 252 253 256 259 261 262 262 262 265 269 273 278 284 288 290 293 293 295 298
256 255 254 254 253 253 252 252 251 250 249 248 247 246 246 245 244 244 243 243 242 241 241 241 240 239 239 238 238 238 238 238 238 237 236 233 229 228 228 227 228 230 230 231 232 231 228 226 227 228 229 231 233 235 235 235 236 237 238 239 239 239 240 241 242 243 245 249 250 250 252 255 257 258 259 258 259 262 268 272 275 280 283 285 287 286 289 290
256 255 255 254 253 253 253 252 252 251 250 249 248 247 246 245 244 244 243 243 242 242 241 241 240 240 239 238 238 238 238 238 238 238 237 235 231 229 230 229 229 229 230 230 231 231 229 227 226 226 226 227 229 232 235 235 235 237 238 239 240 240 241 242 242 242 242 244 246 249 250 248 251 255 255 256 259 259 264 270 270 274 280 281 280 280 282 278
257 256 255 254 253 253 252 252 252 251 251 250 250 249 248 247 246 244 244 243 242 242 241 241 240 240 239 238 238 238 238 239 238 238 238 237 234 231 230 231 231 231 230 229 230 230 230 228 226 226 226 228 228 230 235 235 234 236 238 239 241 241 241 242 243 242 241 242 244 246 245 243 247 251 251 253 257 257 260 265 267 273 277 276 274 274 273 265
258 257 257 256 255 253 252 252 251 251 250 250 249 249 249 248 247 246 245 244 243 242 241 241 240 240 239 239 238 238 238 239 239 239 239 238 236 233 231 232 233 232 231 229 229 229 230 229 228 226 227 229 228 229 233 234 232 234 237 238 240 241 241 242 242 243 242 241 242 243 243 242 242 248 252 250 250 254 256 257 265 273 273 269 270 268 261 253
259 258 258 257 256 255 254 253 252 251 251 250 249 249 249 248 248 247 246 246 244 243 242 242 241 240 240 239 239 238 238 238 238 239 239 239 238 235 233 232 233 233 232 230 229 229 229 229 229 227 228 229 227 230 232 233 232 234 235 236 238 240 240 241 242 243 242 242 242 241 239 237 238 244 245 242 242 245 246 253 265 270 266 266 266 258 247 244
259 258 258 257 257 256 255 254 253 252 252 251 250 249 249 249 248 248 247 247 246 245 243 242 242 241 240 239 239 238 238 238 238 238 238 239 239 237 234 233 233 233 232 231 230 229 229 229 229 228 229 228 227 231 232 231 234 234 234 233 234 237 238 239 241 241 241 241 240 237 235 231 233 234 230 232 236 235 237 252 263 261 262 262 255 245 237 237
258 257 257 257 256 256 255 254 254 253 253 252 251 250 250 249 249 248 247 247 246 246 245 244 242 241 241 240 239 239 239 238 238 238 238 238 239 238 236 234 234 233 233 232 230 230 229 229 229 229 230 228 227 231 230 230 233 235 234 231 230 232 234 236 238 237 237 237 233 232 228 223 225 224 218 220 226 231 235 240 239 243 257 257 241 233 229 233
257 257 256 256 256 255 255 254 253 253 252 252 252 251 250 250 249 249 248 247 247 246 245 245 243 242 241 240 240 239 239 239 239 238 238 237 238 238 237 235 234 234 233 232 231 231 229 229 230 230 230 229 228 230 229 229 231 232 234 231 228 228 229 231 232 231 231 229 225 223 219 217 216 211 208 211 218 223 223 221 210 222 248 247 230 225 224 229
256 256 256 255 255 255 254 254 253 252 252 251 251 251 250 250 250 249 248 248 247 246 246 245 244 243 242 241 240 240 239 238 239 239 238 238 237 237 237 236 234 234 234 233 232 231 230 229 229 230 231 232 231 230 228 229 229 230 233 233 229 227 226 228 228 225 224 219 216 215 211 209 203 201 204 209 215 212 209 208 198 219 237 231 221 221 222 226
256 256 255 255 255 254 254 253 253 252 251 250 250 250 250 249 249 249 249 248 247 247 246 245 245 244 243 242 241 240 239 239 238 238 239 238 238 237 237 236 235 234 234 234 233 231 230 229 229 230 232 232 231 229 227 228 228 229 233 234 232 227 224 225 226 222 219 213 211 210 205 200 195 198 202 204 206 204 201 192 188 221 229 217 215 218 218 226
256 256 255 255 255 254 254 253 253 252 251 250 249 249 249 248 248 248 248 248 247 247 246 245 245 244 244 243 243 241 240 239 239 238 238 238 238 238 237 236 235 234 234 234 233 232 231 230 229 230 231 231 230 230 229 229 228 228 231 233 232 227 221 221 223 220 216 210 207 206 199 194 193 193 195 197 197 197 194 180 183 213 218 209 213 214 216 225
256 256 255 254 254 254 254 253 253 253 252 251 250 249 248 248 247 247 247 247 247 247 246 245 245 244 244 244 243 242 242 241 240 239 238 238 238 238 237 237 235 234 233 233 233 232 231 230 230 231 231 230 230 230 230 229 229 229 230 231 231 228 221 218 220 219 216 210 207 205 197 194 193 189 189 191 192 193 189 178 185 202 208 206 206 207 213 219
256 256 255 254 254 254 253 253 253 253 252 252 251 250 249 248 247 247 247 246 246 246 246 245 245 244 244 243 243 243 242 241 241 240 239 238 238 238 238 237 236 235 233 233 233 232 232 231 231 231 230 228 229 229 230 229 228 229 230 230 231 229 222 216 217 217 217 213 208 206 200 195 193 188 188 189 192 190 183 182 185 191 199 203 200 201 212 217
257 256 256 255 255 254 254 253 253 252 252 252 251 250 249 248 247 247 247 246 246 245 245 245 244 244 243 243 243 243 242 242 241 240 239 238 238 237 237 237 236 235 234 232 232 232 231 230 231 231 230 228 228 228 229 229 228 229 230 229 230 229 223 217 215 214 215 213 209 207 204 199 193 190 190 189 192 187 182 185 184 183 192 197 194 199 212 219
257 257 256 256 255 255 255 254 254 253 252 252 252 251 250 249 248 247 246 246 246 245 245 244 244 243 243 242 242 242 242 241 241 241 240 239 238 237 237 237 236 236 235 233 232 232 231 231 231 231 230 229 228 228 228 228 228 228 229 229 229 229 226 220 215 213 215 213 209 208 208 204 196 196 194 189 189 186 182 184 182 182 188 192 194 196 202 214
257 257 256 256 256 255 255 255 255 255 254 254 253 253 252 251 250 248 247 246 246 246 245 245 244 243 242 242 241 241 241 241 241 241 240 240 239 237 237 237 236 236 235 234 232 231 231 232 232 231 231 230 229 228 228 228 227 228 229 229 229 229 227 223 216 213 214 213 209 207 207 205 200 200 198 189 186 183 179 183 186 186 187 190 196 192 191 208
257 256 256 255 255 255 256 256 256 256 255 255 254 254 253 252 251 250 249 248 247 246 246 245 244 243 242 242 241 241 240 240 240 240 240 240 239 238 237 237 236 235 234 234 233 232 231 232 232 231 230 230 229 228 228 228 227 227 228 228 228 229 227 224 219 213 213 213 211 207 205 206 201 201 200 190 186 181 180 188 193 188 184 185 187 185 196 211
256 256 256 256 255 255 255 256 256 256 255 255 255 254 254 253 252 252 251 250 248 247 247 246 245 244 243 242 242 241 240 239 239 239 239 239 239 238 238 237 236 235 234 233 233 233 232 232 232 231 230 229 229 229 228 228 226 226 227 228 227 228 228 226 222 216 214 214 212 209 208 207 203 202 201 193 189 185 184 190 194 191 189 185 180 182 198 208
257 257 257 257 256 256 256 256 256 256 256 255 255 255 255 254 254 253 253 252 250 248 248 247 246 245 244 243 243 241 240 240 239 239 239 239 239 238 238 237 236 235 234 233 232 232 232 232 232 231 229 228 229 229 228 228 226 224 226 227 227 227 228 227 224 219 217 215 212 210 209 208 205 204 202 197 196 194 191 192 195 199 199 191 185 187 195 202
261 260 259 259 258 258 257 257 257 257 257 257 257 257 257 257 256 256 255 254 253 251 249 249 248 246 245 244 244 243 241 240 239 238 238 238 238 238 238 237 237 236 234 232 232 232 232 232 233 231 228 228 228 229 229 228 226 225 225 225 226 226 227 227 225 221 218 214 212 212 209 208 207 207 204 200 200 203 202 197 194 198 201 197 193 192 195 200
266 265 264 263 262 261 260 260 260 260 260 260 259 259 259 258 258 257 256 255 254 253 251 250 249 247 246 245 244 243 243 241 240 239 238 237 237 237 237 236 236 236 234 232 232 231 231 232 233 232 229 228 229 229 229 228 226 226 225 224 224 225 225 226 225 223 219 213 212 212 209 208 209 210 207 202 202 206 207 203 198 198 199 198 198 197 198 201
267 266 266 265 264 263 262 262 262 261 261 261 260 259 259 258 257 257 256 256 255 254 253 252 250 248 247 246 245 244 243 242 241 240 238 237 236 236 236 236 236 235 235 233 232 231 231 230 232 232 229 227 228 229 229 228 227 227 226 224 224 224 225 225 225 224 219 215 216 214 209 209 210 210 210 206 205 208 208 205 204 203 201 199 201 201 200 202
270 268 267 266 265 264 263 262 262 261 261 261 260 260 259 258 257 257 256 255 255 255 254 253 251 250 248 246 245 244 243 242 241 240 239 238 237 236 235 235 235 235 234 233 232 231 230 229 230 231 229 227 227 228 228 228 227 227 227 225 224 225 225 225 225 224 219 216 218 216 211 210 208 209 211 208 208 211 210 208 205 204 204 204 204 202 201 202
277 274 271 269 267 265 263 262 262 262 262 261 260 259 259 258 257 257 256 255 255 254 254 253 252 250 249 247 246 244 243 242 241 240 240 239 238 236 235 235 234 234 234 233 232 231 231 229 229 230 229 227 227 227 228 227 226 226 227 225 223 225 226 224 224 224 220 216 218 217 213 209 208 210 212 210 209 211 212 211 208 206 205 204 206 204 204 203
281 279 277 274 271 268 266 263 262 262 261 261 260 259 258 258 257 256 255 255 254 253 252 252 252 251 250 248 246 245 244 242 241 240 239 238 238 237 236 235 234 233 234 233 232 231 230 229 229 228 228 226 226 227 227 226 225 225 225 224 222 223 225 224 222 223 220 216 217 218 214 209 208 211 212 211 211 210 211 212 210 209 206 203 206 206 205 204
283 281 279 277 274 272 269 266 263 261 260 260 259 258 258 257 257 256 255 254 253 252 251 251 250 250 250 248 247 246 245 243 242 241 239 238 237 236 236 235 234 233 233 233 232 230 230 229 228 227 226 225 225 226 226 225 225 225 225 224 222 222 224 223 220 220 220 217 217 218 216 210 208 211 212 213 214 211 210 212 211 210 208 205 204 206 206 206
287 284 281 278 276 273 270 267 263 261 260 259 259 258 258 257 257 256 255 254 253 253 251 250 250 249 249 249 248 247 246 244 243 242 240 238 237 235 234 234 234 233 232 232 232 231 230 229 229 227 226 225 224 225 227 226 224 225 225 224 223 221 223 224 220 219 219 218 217 218 218 214 210 212 213 212 215 215 211 212 212 210 210 207 205 207 209 208
288 285 282 279 277 274 271 268 265 263 261 260 260 259 258 257 257 256 255 254 253 253 252 251 250 250 249 248 248 248 247 245 243 243 241 239 238 236 234 233 233 233 232 232 232 231 229 229 229 227 225 225 224 224 226 226 224 224 225 224 222 221 222 223 221 218 218 217 216 217 219 218 213 213 215 212 213 216 215 213 212 210 210 209 206 208 211 210
289 286 282 280 277 275 272 270 267 265 263 262 261 260 259 258 257 257 256 255 254 253 253 252 250 250 250 248 247 247 247 245 243 243 243 240 239 237 234 233 233 232 232 231 231 230 229 229 229 226 224 224 224 222 224 225 224 224 224 224 222 220 221 222 221 218 218 217 216 215 217 219 216 214 216 214 211 215 218 216 213 211 211 209 206 206 209 209
292 288 283 280 277 275 273 271 270 268 266 265 264 262 261 261 260 259 257 256 255 254 254 253 252 250 250 250 247 245 246 246 243 243 243 240 238 237 235 233 232 232 231 231 231 230 229 229 229 226 223 223 223 222 221 223 224 223 224 224 222 220 220 221 220 217 216 216 216 215 214 217 217 214 215 216 212 214 219 219 216 213 213 211 207 206 208 209
298 292 287 282 278 275 273 272 271 270 268 267 266 264 263 262 261 260 259 258 257 256 255 254 253 252 251 251 249 246 246 246 243 242 242 241 238 237 235 233 232 232 231 230 230 229 228 228 228 226 224 222 223 222 220 220 222 223 223 223 222 221 220 221 221 217 216 215 215 215 213 214 217 214 214 217 215 213 217 220 218 215 214 214 211 209 209 209
302 296 291 286 281 278 275 273 272 270 269 267 266 265 264 263 262 262 261 259 259 258 257 255 254 254 252 251 250 248 246 246 245 242 241 240 238 236 235 233 232 231 231 230 229 228 227 227 227 226 224 222 222 222 220 219 221 222 222 221 221 221 220 220 221 219 217 216 215 214 212 212 216 215 213 218 218 214 215 219 218 216 215 214 213 212 212 212
305 299 294 290 286 282 279 276 274 272 270 268 267 266 265 264 263 263 262 261 260 260 259 258 256 255 253 251 251 250 247 246 246 244 241 239 238 236 234 234 232 230 230 229 228 226 225 226 226 226 225 223 222 221 220 218 219 221 221 220 218 219 218 218 218 217 217 217 216 214 211 211 214 215 214 219 221 218 216 218 219 217 216 215 213 212 213 214
309 304 300 296 292 287 283 280 277 274 271 269 268 267 266 265 264 264 263 263 262 261 261 260 259 258 256 254 252 251 248 246 246 245 243 240 238 236 233 233 232 230 229 228 227 225 224 223 224 224 224 223 221 221 220 219 219 220 221 220 217 217 217 217 216 215 215 215 215 214 211 211 213 213 214 218 222 222 219 218 220 219 217 216 214 212 213 214
313 309 305 301 296 291 286 281 278 275 273 271 269 267 266 266 265 265 265 264 264 263 262 261 260 259 258 256 254 253 250 248 246 245 244 242 238 235 233 232 233 231 229 228 227 225 223 222 222 223 223 222 221 220 218 218 219 220 220 221 219 217 218 217 215 215 214 213 213 213 211 211 212 210 213 217 220 222 221 218 220 220 218 217 215 213 213 214
317 312 308 303 298 292 287 283 279 276 274 272 270 269 268 267 266 266 266 266 266 266 265 264 263 262 261 259 256 254 252 250 247 245 245 244 240 236 232 232 233 231 229 228 227 226 223 222 221 221 222 222 221 219 218 217 217 217 217 218 218 217 218 218 217 215 214 213 214 213 210 211 211 208 212 218 219 221 221 218 219 221 219 217 216 215 215 214
318 315 310 304 299 294 289 285 281 278 276 274 273 271 270 269 268 268 267 268 269 269 268 268 267 266 264 262 260 257 254 251 249 246 245 244 242 238 233 232 233 231 229 228 227 225 224 222 221 220 220 221 220 219 219 218 217 216 216 216 216 215 215 216 216 215 214 213 214 213 210 211 211 207 209 216 219 220 220 218 218 221 220 218 217 216 216 215
319 316 311 306 301 297 292 288 285 282 279 277 275 274 273 272 271 271 271 271 271 271 270 269 268 267 265 264 262 260 257 254 252 250 247 245 243 240 235 233 233 232 229 228 226 225 223 222 220 219 219 220 220 219 218 218 217 216 216 216 216 214 213 214 214 213 212 212 212 212 211 211 210 207 207 215 219 219 219 218 218 220 220 218 218 217 216 214
321 317 312 308 305 300 296 293 290 286 283 281 279 277 276 276 275 276 276 276 275 274 273 271 269 267 266 264 263 262 261 259 257 254 252 248 244 241 238 235 234 232 230 228 226 224 223 222 220 218 217 218 219 219 218 218 217 216 215 216 215 215 214 214 212 211 210 211 210 211 211 210 209 206 207 215 221 221 220 219 218 220 222 221 220 218 217 216
322 318 314 311 308 304 301 298 294 291 287 285 283 282 281 280 279 279 279 279 278 277 276 274 272 270 267 266 265 265 265 263 260 256 254 250 245 241 238 235 234 232 230 228 226 224 223 221 220 218 216 216 218 219 218 218 217 216 215 215 214 215 215 214 213 211 209 209 209 210 210 209 208 206 205 212 220 221 221 220 217 219 222 222 219 218 217 217
324 320 317 313 311 308 305 302 299 295 292 290 288 287 286 285 285 285 285 285 284 282 280 278 275 273 271 270 270 270 268 265 261 256 252 249 246 242 237 234 232 231 230 228 225 224 222 221 220 218 216 215 217 218 218 217 217 216 215 214 213 214 215 214 213 211 210 210 210 210 209 208 208 207 206 211 219 220 219 219 216 216 220 221 219 218 218 219
325 322 319 315 313 311 309 306 304 300 297 295 293 292 291 291 291 292 292 293 291 289 286 282 278 276 276 276 276 273 270 265 261 257 252 247 243 241 238 234 231 229 228 227 224 223 221 220 220 219 216 215 216 218 218 217 216 216 215 214 213 213 214 213 211 210 210 210 210 211 209 208 209 208 206 211 218 219 218 219 216 213 218 221 219 219 220 220
327 324 321 317 314 313 311 309 308 305 302 300 299 297 296 296 297 298 300 300 300 299 295 289 285 284 283 282 280 276 271 266 260 255 251 245 240 237 235 233 231 228 227 225 223 222 220 219 219 219 216 214 215 217 217 217 216 215 214 214 213 213 212 212 210 209 208 209 210 210 209 209 210 208 207 212 218 218 218 219 216 212 215 218 219 220 221 220
Height
10929 10930 10931 10931 10932 10933 10934 10935 10936 10937 10938 10940 10941 10942 10944 10945 10947 10948 10949 10951 10952 10954 10955 10957 10959 10960 10961 10962 10964 10965 10965 10966 10966 10967 10969 10969 10972 10974 10975 10976 10978 10980 10982 10984 10985 10987 10990 10992 10995 10998 11001 11003 11006 11009 11011 11013 11015 11017 11018 11019 11020 11019 11020 11021 11021 11021 11020 11017 11018 11021 11022 11024 11024 11025 11027 11027 11027 11027 11026 11026 11024 11022 11020 11018 11016 11014 11012 11009
10924 10925 10926 10927 10927 10929 10930 10931 10931 10932 10934 10935 10937 10938 10939 10941 10942 10944 10945 10946 10948 10949 10951 10952 10954 10956 10958 10959 10960 10961 10962 10963 10964 10965 10966 10965 10968 10971 10972 10973 10974 10976 10978 10979 10981 10984 10987 10989 10991 10994 10997 11000 11003 11006 11008 11011 11013 11015 11015 11017 11017 11016 11016 11017 11019 11019 11019 11017 11018 11021 11021 11022 11023 11024 11026 11026 11026 11025 11025 11024 11022 11021 11019 11017 11015 11013 11011 11009
10920 10920 10921 10922 10923 10923 10925 10926 10927 10928 10929 10931 10932 10933 10935 10936 10937 10939 10940 10942 10943 10945 10946 10948 10950 10952 10953 10955 10956 10957 10958 10959 10961 10963 10963 10962 10964 10967 10968 10969 10970 10972 10974 10975 10977 10980 10982 10985 10987 10990 10993 10996 10999 11002 11005 11007 11010 11012 11013 11013 11011 11012 11012 11012 11015 11017 11019 11020 11020 11020 11020 11021 11021 11023 11025 11025 11025 11024 11023 11021 11020 11019 11017 11016 11014 11012 11010 11008
10915 10915 10916 10916 10917 10918 10919 10920 10921 10923 10924 10925 10927 10928 10929 10931 10932 10934 10935 10937 10938 10940 10942 10943 10945 10947 10949 10951 10952 10953 10954 10955 10957 10959 10960 10959 10961 10963 10965 10966 10967 10968 10970 10971 10973 10976 10978 10981 10983 10986 10989 10993 10996 10998 11001 11004 11007 11008 11009 11009 11007 11008 11008 11008 11011 11014 11017 11020 11020 11018 11020 11020 11019 11021 11023 11024 11024 11022 11021 11018 11017 11017 11016 11015 11013 11011 11010 11007
10909 10909 10910 10911 10912 10913 10914 10915 10916 10918 10919 10920 10921 10923 10924 10925 10927 10928 10930 10931 10933 10935 10937 10938 10940 10942 10944 10946 10948 10949 10950 10951 10952 10955 10955 10956 10958 10959 10961 10962 10963 10964 10966 10968 10970 10972 10975 10977 10979 10982 10986 10989 10992 10994 10997 11000 11002 11004 11005 11006 11006 11005 11005 11006 11008 11011 11013 11016 11017 11016 11019 11020 11019 11020 11022 11023 11022 11020 11018 11016 11015 11015 11014 11013 11012 11010 11008 11007
10903 10904 10904 10905 10906 10907 10908 10909 10910 10912 10913 10915 10916 10917 10918 10919 10921 10922 10924 10925 10928 10930 10931 10933 10935 10937 10938 10941 10943 10944 10946 10946 10947 10949 10951 10952 10954 10956 10957 10958 10959 10961 10963 10965 10967 10969 10971 10973 10976 10978 10982 10984 10987 10990 10993 10996 10998 11000 11001 11003 11003 11002 11002 11005 11006 11007 11010 11012 11015 11016 11017 11019 11019 11020 11022 11022 11022 11021 11017 11013 11013 11013 11013 11012 11011 11009 11007 11006
10897 10897 10898 10899 10899 10901 10901 10902 10904 10906 10907 10908 10910 10911 10912 10914 10915 10916 10918 10920 10922 10924 10925 10927 10929 10931 10933 10935 10937 10939 10941 10941 10942 10944 10946 10948 10950 10953 10954 10954 10956 10957 10959 10961 10964 10966 10968 10970 10972 10974 10977 10980 10982 10985 10988 10991 10993 10995 10996 10998 10999 10998 10999 11002 11003 11004 11007 11009 11013 11014 11014 11016 11018 11018 11020 11022 11022 11021 11017 11011 11011 11012 11011 11011 11009 11008 11006 11005
10890 10891 10892 10892 10893 10894 10895 10896 10897 10899 10901 10902 10903 10905 10906 10908 10909 10910 10911 10913 10915 10917 10919 10921 10923 10925 10927 10930 10932 10934 10935 10936 10937 10939 10941 10943 10946 10949 10950 10951 10952 10954 10956 10957 10960 10962 10964 10966 10969 10971 10973 10976 10978 10981 10983 10985 10988 10989 10991 10993 10994 10995 10996 10998 11000 11002 11004 11007 11010 11012 11012 11015 11016 11015 11017 11021 11020 11018 11017 11013 11011 11010 11010 11009 11008 11007 11005 11004
10884 10885 10885 10886 10887 10888 10889 10890 10891 10892 10894 10895 10897 10898 10900 10901 10902 10903 10905 10907 10908 10910 10913 10915 10916 10918 10921 10924 10926 10928 10929 10930 10932 10934 10936 10938 10941 10944 10946 10947 10948 10950 10952 10953 10956 10958 10960 10963 10966 10968 10970 10972 10974 10976 10978 10980 10982 10983 10985 10987 10989 10991 10993 10995 10997 11000 11003 11005 11007 11008 11011 11013 11013 11013 11014 11017 11017 11015 11014 11012 11010 11009 11009 11008 11007 11006 11005 11004
10878 10878 10879 10880 10880 10881 10882 10883 10884 10886 10887 10888 10890 10891 10893 10894 10895 10897 10898 10900 10902 10904 10906 10908 10909 10912 10915 10917 10920 10922 10923 10925 10926 10928 10930 10932 10935 10939 10941 10942 10944 10946 10947 10950 10952 10954 10957 10961 10963 10965 10966 10967 10969 10970 10972 10974 10976 10978 10980 10982 10984 10987 10989 10992 10994 10998 11000 11002 11003 11004 11008 11011 11010 11010 11010 11012 11014 11013 11011 11010 11008 11007 11007 11007 11006 11005 11004 11003
10870 10871 10872 10873 10874 10874 10875 10876 10877 10878 10880 10881 10883 10884 10885 10887 10888 10890 10891 10893 10895 10897 10899 10901 10903 10905 10908 10911 10914 10915 10916 10918 10920 10922 10924 10926 10929 10933 10936 10937 10939 10941 10943 10945 10947 10950 10954 10957 10959 10960 10961 10963 10964 10965 10967 10970 10973 10974 10975 10977 10979 10982 10985 10988 10991 10994 10996 10998 10999 11000 11005 11007 11006 11006 11006 11008 11010 11010 11008 11006 11005 11005 11005 11005 11005 11004 11004 11003
10862 10863 10864 10865 10866 10867 10868 10869 10870 10871 10872 10874 10875 10877 10878 10879 10881 10882 10884 10886 10887 10890 10892 10894 10896 10898 10901 10904 10907 10908 10910 10912 10913 10916 10918 10920 10923 10927 10930 10932 10934 10936 10938 10941 10943 10946 10949 10952 10954 10955 10958 10959 10960 10963 10964 10966 10969 10970 10971 10973 10975 10978 10981 10983 10986 10990 10992 10994 10995 10998 11001 11002 11001 11001 11002 11005 11006 11006 11006 11003 11003 11003 11004 11004 11003 11003 11003 11002
10853 10855 10856 10857 10858 10859 10860 10861 10862 10863 10865 10866 10868 10869 10870 10872 10873 10875 10877 10878 10880 10882 10884 10887 10889 10891 10894 10897 10899 10901 10904 10905 10907 10910 10911 10913 10916 10920 10924 10926 10928 10930 10933 10936 10939 10942 10945 10947 10948 10951 10954 10954 10958 10960 10959 10960 10965 10966 10968 10970 10971 10973 10977 10979 10982 10985 10987 10989 10991 10994 10997 10997 10997 10998 10998 11002 11003 11002 11003 11002 11001 11002 11002 11002 11002 11002 11002 11002
10844 10845 10846 10847 10848 10849 10851 10853 10854 10855 10857 10858 10860 10862 10863 10864 10865 10867 10869 10870 10873 10875 10877 10879 10882 10884 10886 10889 10891 10894 10896 10898 10900 10903 10904 10907 10909 10912 10917 10920 10922 10924 10928 10931 10934 10937 10939 10941 10944 10948 10949 10950 10955 10955 10953 10958 10961 10962 10965 10967 10967 10969 10973 10975 10977 10981 10983 10985 10988 10990 10992 10993 10994 10996 10996 10997 11000 11000 10999 10999 11000 11001 11001 11001 11001 11001 11001 11001
10834 10835 10836 10837 10838 10839 10841 10843 10845 10847 10848 10850 10852 10854 10855 10856 10857 10859 10861 10862 10864 10867 10869 10872 10874 10876 10879 10881 10884 10887 10889 10891 10893 10895 10898 10900 10902 10905 10909 10913 10916 10918 10922 10925 10929 10932 10934 10936 10939 10942 10943 10946 10950 10948 10950 10956 10957 10958 10961 10962 10964 10967 10970 10972 10974 10977 10978 10980 10983 10985 10986 10989 10991 10993 10994 10993 10996 10997 10996 10997 10998 10998 10999 11000 11001 11001 11001 11001
10823 10825 10826 10826 10827 10828 10830 10832 10835 10837 10839 10840 10843 10844 10846 10847 10848 10850 10852 10854 10856 10858 10860 10863 10866 10868 10871 10874 10876 10879 10881 10884 10885 10887 10890 10893 10895 10898 10901 10906 10909 10912 10915 10919 10922 10926 10928 10932 10934 10936 10938 10942 10944 10943 10948 10952 10952 10953 10955 10957 10961 10964 10966 10969 10971 10973 10975 10977 10979 10980 10982 10984 10987 10989 10990 10991 10992 10992 10994 10996 10997 10997 10998 10999 11000 11000 11001 11001
10813 10814 10815 10815 10816 10817 10819 10821 10823 10826 10828 10830 10832 10834 10836 10837 10839 10841 10843 10844 10847 10849 10852 10854 10857 10860 10863 10866 10868 10871 10874 10876 10877 10879 10882 10885 10888 10890 10893 10898 10902 10905 10909 10912 10916 10919 10923 10926 10929 10931 10933 10936 10939 10940 10944 10947 10947 10948 10949 10953 10957 10960 10964 10966 10968 10970 10972 10974 10975 10976 10978 10980 10983 10986 10987 10988 10989 10990 10992 10995 10996 10997 10999 10999 11000 11000 11000 11000
10803 10803 10804 10804 10805 10806 10808 10809 10811 10815 10817 10819 10821 10823 10825 10827 10828 10830 10832 10835 10837 10840 10843 10845 10848 10851 10854 10857 10859 10862 10865 10868 10870 10872 10874 10877 10880 10882 10886 10891 10895 10899 10902 10905 10909 10912 10916 10920 10922 10926 10928 10932 10933 10935 10939 10939 10940 10943 10945 10948 10954 10958 10962 10963 10966 10968 10969 10971 10972 10973 10975 10977 10980 10982 10983 10986 10987 10989 10992 10993 10994 10997 10999 10999 10999 11000 11000 11000
10792 10793 10793 10794 10794 10795 10796 10797 10799 10802 10805 10807 10810 10812 10814 10816 10818 10819 10821 10824 10826 10829 10833 10836 10838 10842 10845 10847 10850 10853 10856 10859 10861 10864 10867 10869 10872 10875 10878 10882 10887 10892 10895 10898 10902 10906 10910 10913 10917 10922 10923 10923 10925 10928 10931 10932 10936 10941 10941 10945 10951 10956 10959 10961 10963 10966 10968 10969 10970 10970 10972 10975 10977 10978 10981 10983 10985 10987 10990 10991 10994 10998 10999 10999 10999 10999 11000 11000
10781 10782 10783 10783 10783 10783 10784 10786 10788 10790 10793 10796 10798 10800 10802 10804 10807 10808 10810 10812 10815 10818 10821 10825 10828 10832 10835 10837 10840 10843 10847 10850 10852 10856 10859 10861 10864 10867 10870 10874 10879 10884 10888 10890 10894 10899 10902 10907 10913 10914 10913 10914 10917 10922 10926 10929 10934 10937 10938 10942 10946 10951 10956 10959 10960 10963 10966 10967 10967 10968 10970 10972 10974 10976 10978 10981 10983 10986 10988 10990 10994 10999 11000 10999 10999 10999 10999 10999
10770 10770 10772 10772 10772 10772 10773 10775 10776 10778 10780 10783 10785 10788 10790 10793 10795 10796 10799 10801 10803 10806 10809 10813 10817 10821 10825 10827 10829 10833 10836 10839 10843 10846 10850 10853 10855 10858 10862 10866 10871 10876 10879 10882 10886 10892 10896 10903 10906 10903 10903 10908 10913 10917 10921 10926 10930 10932 10934 10937 10941 10946 10951 10955 10958 10960 10963 10964 10965 10967 10968 10970 10972 10974 10976 10979 10981 10983 10986 10989 10995 11000 11000 10999 10999 10998 10998 10999
10758 10758 10760 10761 10761 10761 10762 10764 10765 10766 10768 10770 10773 10776 10778 10781 10783 10785 10787 10789 10791 10794 10797 10801 10805 10810 10813 10816 10819 10822 10825 10828 10832 10836 10840 10844 10846 10850 10854 10858 10862 10866 10870 10874 10880 10885 10890 10896 10895 10892 10896 10902 10906 10911 10916 10921 10925 10927 10929 10933 10937 10941 10946 10951 10955 10957 10959 10961 10963 10964 10966 10967 10970 10972 10975 10977 10979 10981 10984 10988 10995 10999 10999 10997 10997 10997 10997 10997
10745 10746 10747 10749 10750 10750 10751 10752 10753 10755 10756 10758 10760 10763 10766 10769 10771 10773 10775 10777 10779 10782 10785 10789 10793 10797 10801 10805 10807 10810 10813 10817 10821 10825 10829 10833 10837 10843 10846 10848 10852 10857 10862 10868 10873 10876 10882 10885 10882 10882 10890 10897 10901 10906 10910 10914 10919 10922 10924 10928 10932 10936 10941 10946 10950 10953 10955 10957 10960 10962 10964 10966 10968 10970 10973 10975 10977 10980 10983 10987 10992 10994 10995 10994 10994 10994 10995 10996
10732 10734 10735 10737 10738 10739 10740 10740 10742 10743 10745 10746 10748 10750 10753 10755 10758 10761 10763 10765 10767 10770 10773 10777 10780 10785 10789 10792 10795 10798 10802 10806 10810 10813 10818 10822 10827 10833 10835 10838 10844 10849 10854 10859 10864 10868 10873 10873 10872 10877 10886 10891 10895 10900 10904 10908 10913 10915 10918 10923 10926 10930 10936 10941 10946 10949 10951 10954 10959 10961 10963 10965 10967 10969 10970 10972 10974 10977 10981 10985 10988 10990 10991 10991 10992 10993 10994 10995
10720 10721 10722 10724 10726 10727 10727 10728 10730 10731 10733 10734 10736 10738 10740 10742 10746 10748 10751 10753 10755 10759 10761 10764 10768 10772 10776 10779 10782 10785 10789 10795 10798 10801 10806 10810 10815 10821 10825 10829 10834 10839 10844 10849 10854 10860 10863 10864 10866 10873 10879 10884 10889 10894 10897 10901 10905 10909 10913 10918 10920 10924 10931 10936 10941 10945 10948 10952 10955 10957 10960 10963 10965 10967 10969 10970 10972 10974 10978 10983 10985 10987 10988 10989 10991 10991 10991 10992
10707 10708 10710 10712 10714 10716 10716 10716 10717 10718 10721 10721 10723 10726 10727 10730 10732 10735 10739 10739 10743 10749 10748 10750 10756 10758 10762 10767 10769 10772 10777 10783 10786 10789 10794 10798 10803 10809 10813 10817 10823 10828 10834 10839 10844 10851 10855 10856 10858 10864 10871 10876 10881 10885 10889 10893 10899 10904 10907 10911 10914 10919 10925 10931 10936 10942 10946 10947 10950 10954 10957 10960 10962 10966 10968 10970 10971 10972 10976 10981 10983 10985 10986 10987 10989 10988 10989 10991
10695 10697 10698 10700 10703 10705 10705 10705 10705 10706 10708 10708 10710 10712 10713 10717 10718 10721 10726 10724 10730 10740 10735 10736 10744 10745 10749 10754 10755 10759 10765 10770 10773 10778 10782 10786 10791 10797 10800 10805 10811 10816 10823 10830 10837 10843 10846 10847 10850 10856 10863 10868 10873 10878 10881 10884 10891 10897 10900 10903 10909 10913 10919 10925 10931 10937 10941 10942 10947 10952 10954 10958 10961 10964 10967 10970 10971 10972 10975 10978 10980 10982 10983 10984 10985 10987 10989 10991
10684 10685 10687 10689 10691 10694 10695 10695 10694 10694 10695 10695 10698 10699 10701 10704 10705 10708 10712 10709 10718 10727 10722 10723 10730 10732 10737 10740 10740 10746 10752 10757 10761 10767 10771 10773 10779 10783 10786 10793 10799 10804 10812 10820 10827 10831 10833 10837 10840 10846 10854 10860 10865 10869 10871 10875 10883 10889 10891 10896 10903 10908 10914 10919 10924 10931 10935 10938 10944 10949 10952 10956 10960 10962 10965 10968 10970 10972 10974 10975 10977 10979 10980 10982 10983 10986 10988 10990
10674 10675 10676 10678 10680 10682 10684 10684 10683 10682 10683 10685 10686 10688 10690 10691 10692 10695 10696 10696 10705 10710 10708 10711 10716 10719 10723 10724 10727 10733 10739 10744 10749 10754 10758 10761 10766 10769 10773 10782 10786 10791 10800 10808 10814 10818 10823 10827 10828 10835 10847 10854 10856 10858 10860 10867 10876 10880 10882 10890 10898 10903 10907 10910 10917 10923 10927 10934 10942 10946 10950 10953 10955 10958 10961 10965 10968 10970 10971 10973 10975 10976 10978 10980 10982 10983 10985 10987
10664 10664 10665 10667 10668 10671 10672 10672 10672 10671 10673 10674 10675 10677 10678 10678 10680 10680 10680 10685 10690 10691 10694 10700 10701 10703 10707 10710 10715 10721 10725 10730 10735 10740 10743 10747 10753 10756 10761 10768 10772 10777 10786 10795 10802 10807 10812 10816 10818 10828 10841 10845 10846 10849 10852 10860 10869 10871 10876 10885 10890 10894 10897 10901 10909 10915 10921 10932 10939 10942 10946 10948 10951 10955 10958 10962 10964 10965 10968 10970 10973 10975 10977 10979 10981 10982 10982 10983
10654 10653 10653 10655 10656 10658 10660 10660 10659 10659 10661 10661 10662 10664 10664 10665 10665 10665 10668 10671 10673 10676 10681 10684 10684 10687 10692 10696 10701 10707 10710 10715 10720 10724 10728 10733 10738 10743 10748 10752 10758 10766 10774 10782 10789 10793 10798 10805 10811 10818 10828 10834 10837 10840 10845 10853 10861 10865 10870 10878 10882 10885 10889 10895 10902 10908 10919 10931 10934 10935 10940 10943 10947 10951 10954 10957 10959 10961 10964 10967 10970 10972 10974 10977 10979 10980 10980 10980
10644 10643 10642 10643 10644 10645 10647 10647 10646 10646 10647 10648 10649 10650 10651 10652 10651 10652 10656 10656 10659 10665 10665 10666 10669 10674 10677 10680 10686 10692 10694 10699 10705 10708 10713 10718 10723 10729 10734 10737 10747 10755 10759 10765 10772 10777 10784 10794 10801 10805 10813 10822 10827 10831 10836 10844 10853 10857 10861 10868 10874 10877 10881 10888 10895 10903 10916 10925 10926 10928 10934 10938 10943 10946 10948 10952 10955 10957 10960 10963 10966 10969 10972 10974 10977 10977 10978 10978
10635 10633 10632 10632 10632 10634 10635 10636 10635 10634 10635 10636 10637 10637 10638 10639 10639 10640 10642 10643 10648 10652 10650 10651 10656 10658 10661 10666 10672 10676 10677 10684 10691 10693 10698 10703 10707 10714 10718 10724 10736 10741 10741 10749 10758 10766 10774 10783 10789 10793 10801 10811 10818 10823 10828 10836 10843 10846 10850 10858 10866 10869 10873 10882 10891 10898 10910 10916 10917 10920 10925 10933 10938 10939 10942 10946 10949 10952 10955 10958 10962 10965 10968 10972 10974 10975 10976 10977
10627 10625 10624 10623 10622 10623 10624 10625 10624 10623 10623 10624 10624 10625 10626 10626 10628 10628 10630 10633 10635 10636 10638 10638 10640 10643 10646 10651 10657 10659 10662 10670 10675 10677 10682 10687 10690 10696 10702 10712 10723 10726 10727 10734 10745 10753 10759 10767 10774 10778 10787 10800 10808 10813 10818 10824 10830 10833 10838 10845 10854 10860 10865 10875 10884 10892 10900 10906 10908 10912 10920 10929 10933 10932 10935 10939 10942 10946 10950 10953 10957 10961 10964 10968 10971 10972 10974 10975
10619 10618 10617 10615 10613 10614 10615 10615 10615 10613 10613 10613 10612 10614 10615 10615 10616 10617 10619 10622 10621 10623 10626 10626 10627 10631 10632 10636 10642 10643 10647 10656 10659 10660 10665 10669 10672 10680 10691 10700 10706 10710 10714 10719 10729 10738 10744 10753 10757 10761 10773 10786 10795 10800 10804 10810 10816 10823 10828 10834 10845 10854 10858 10865 10875 10883 10889 10896 10902 10908 10915 10922 10923 10924 10928 10933 10937 10941 10945 10948 10953 10956 10960 10964 10967 10969 10970 10972
10611 10609 10608 10607 10605 10605 10606 10605 10606 10604 10604 10604 10603 10604 10606 10605 10606 10607 10608 10610 10610 10612 10613 10613 10616 10618 10619 10624 10627 10630 10635 10641 10643 10644 10647 10653 10658 10667 10679 10684 10686 10693 10700 10705 10714 10723 10732 10738 10739 10748 10765 10777 10787 10794 10794 10798 10808 10815 10820 10827 10839 10848 10850 10856 10867 10875 10881 10889 10897 10902 10906 10911 10915 10917 10923 10929 10933 10936 10940 10943 10947 10951 10955 10959 10962 10964 10966 10969
10603 10602 10600 10598 10597 10596 10596 10596 10596 10596 10596 10596 10595 10596 10597 10596 10597 10597 10597 10599 10600 10601 10601 10603 10606 10606 10608 10611 10615 10620 10621 10623 10627 10629 10631 10639 10645 10653 10665 10667 10669 10678 10685 10691 10698 10706 10718 10722 10723 10739 10758 10767 10776 10782 10781 10786 10798 10805 10809 10818 10829 10837 10841 10847 10857 10865 10873 10883 10891 10896 10900 10905 10910 10914 10918 10924 10928 10929 10933 10937 10941 10945 10949 10954 10958 10960 10963 10966
10596 10595 10592 10590 10588 10587 10586 10586 10586 10586 10587 10588 10587 10587 10588 10587 10588 10588 10588 10589 10590 10590 10590 10592 10595 10595 10595 10598 10605 10609 10604 10605 10616 10617 10615 10624 10631 10639 10648 10652 10656 10663 10669 10676 10681 10690 10704 10706 10708 10727 10746 10753 10758 10763 10766 10775 10787 10793 10798 10806 10817 10826 10832 10837 10847 10859 10869 10877 10882 10887 10892 10897 10903 10910 10912 10917 10921 10922 10924 10929 10934 10940 10943 10948 10953 10956 10958 10961
10589 10587 10585 10583 10581 10579 10578 10577 10577 10577 10577 10579 10578 10578 10578 10578 10578 10578 10579 10579 10579 10580 10581 10582 10584 10584 10585 10587 10592 10594 10591 10594 10604 10602 10600 10609 10617 10624 10631 10636 10642 10648 10653 10660 10664 10676 10689 10689 10694 10716 10732 10736 10738 10743 10755 10765 10774 10781 10786 10795 10806 10816 10823 10829 10839 10852 10860 10866 10872 10879 10885 10889 10895 10902 10904 10907 10912 10915 10917 10922 10928 10934 10938 10943 10947 10950 10953 10957
10583 10580 10578 10576 10574 10572 10571 10570 10569 10568 10569 10570 10569 10569 10569 10568 10569 10568 10569 10569 10569 10570 10571 10571 10572 10573 10575 10576 10576 10581 10583 10582 10586 10588 10589 10594 10602 10608 10613 10619 10627 10632 10638 10644 10649 10660 10669 10672 10684 10702 10712 10716 10720 10730 10746 10755 10760 10768 10775 10785 10798 10809 10818 10824 10832 10843 10850 10856 10863 10871 10879 10884 10887 10893 10896 10898 10903 10909 10911 10916 10922 10929 10933 10938 10942 10946 10949 10952
10576 10573 10570 10569 10567 10566 10564 10563 10562 10561 10561 10561 10561 10560 10560 10560 10560 10559 10559 10560 10559 10560 10561 10561 10562 10563 10564 10565 10563 10568 10572 10568 10570 10575 10577 10580 10586 10592 10598 10605 10613 10618 10621 10626 10630 10639 10650 10660 10673 10684 10692 10702 10710 10720 10734 10743 10750 10756 10762 10775 10789 10800 10809 10815 10823 10836 10844 10850 10857 10863 10872 10877 10877 10882 10888 10889 10894 10901 10905 10909 10915 10921 10927 10932 10938 10941 10944 10948
10569 10566 10564 10562 10560 10559 10558 10556 10555 10554 10554 10553 10553 10552 10552 10551 10551 10550 10550 10550 10550 10551 10550 10551 10552 10552 10552 10554 10553 10555 10558 10557 10558 10561 10564 10568 10570 10578 10588 10593 10597 10601 10603 10606 10610 10622 10639 10651 10659 10668 10677 10689 10698 10705 10718 10729 10734 10736 10744 10759 10773 10782 10792 10801 10813 10827 10835 10842 10849 10855 10863 10866 10867 10876 10883 10883 10888 10895 10900 10904 10909 10914 10920 10926 10932 10936 10940 10944
10563 10560 10557 10556 10554 10552 10551 10549 10548 10547 10546 10546 10545 10544 10544 10543 10543 10542 10542 10542 10542 10542 10541 10541 10542 10541 10540 10543 10542 10542 10544 10546 10546 10547 10550 10554 10556 10566 10578 10578 10578 10584 10587 10588 10595 10610 10626 10633 10640 10650 10658 10669 10682 10692 10707 10719 10721 10723 10735 10748 10759 10770 10780 10790 10802 10812 10818 10827 10837 10844 10853 10857 10861 10872 10877 10876 10881 10888 10894 10899 10901 10907 10914 10919 10925 10931 10934 10939
10557 10554 10551 10549 10547 10546 10545 10543 10542 10541 10540 10539 10538 10537 10537 10536 10535 10535 10534 10533 10534 10533 10532 10532 10533 10531 10530 10531 10531 10530 10532 10534 10535 10535 10536 10539 10545 10555 10563 10563 10563 10568 10572 10577 10586 10600 10611 10616 10625 10635 10641 10653 10668 10679 10692 10703 10706 10715 10730 10741 10754 10769 10775 10781 10791 10798 10805 10817 10825 10833 10845 10851 10857 10867 10869 10869 10875 10879 10884 10891 10894 10899 10907 10913 10919 10924 10928 10933
10551 10549 10546 10543 10541 10540 10539 10537 10536 10535 10533 10532 10531 10530 10530 10529 10528 10527 10526 10525 10525 10525 10524 10523 10523 10521 10520 10520 10520 10519 10520 10521 10523 10524 10525 10527 10532 10541 10549 10551 10550 10553 10560 10569 10577 10586 10594 10602 10611 10621 10628 10640 10654 10664 10674 10681 10686 10699 10714 10725 10741 10756 10763 10772 10782 10790 10801 10815 10820 10829 10841 10845 10850 10861 10863 10863 10866 10867 10872 10882 10887 10891 10899 10906 10912 10917 10922 10928
10545 10543 10540 10538 10536 10534 10533 10531 10530 10529 10528 10527 10525 10524 10523 10522 10521 10520 10520 10519 10517 10516 10516 10514 10514 10512 10510 10509 10508 10508 10508 10509 10511 10513 10514 10515 10519 10527 10535 10538 10536 10540 10550 10557 10562 10570 10579 10589 10597 10607 10616 10628 10639 10649 10658 10665 10672 10686 10698 10706 10719 10734 10746 10759 10769 10780 10797 10808 10812 10821 10831 10833 10840 10851 10854 10852 10853 10856 10865 10875 10879 10884 10892 10899 10905 10911 10918 10925
10539 10537 10535 10532 10531 10529 10527 10526 10525 10523 10522 10521 10519 10518 10516 10515 10514 10513 10513 10512 10511 10509 10508 10506 10505 10503 10500 10498 10497 10496 10496 10497 10500 10503 10503 10504 10508 10514 10521 10525 10524 10530 10537 10542 10548 10557 10565 10574 10583 10593 10604 10615 10624 10633 10641 10649 10660 10675 10686 10693 10707 10723 10733 10740 10750 10769 10786 10792 10798 10812 10821 10825 10836 10846 10848 10844 10841 10845 10856 10864 10869 10877 10884 10890 10898 10906 10913 10919
10533 10531 10529 10527 10525 10524 10522 10520 10519 10518 10516 10515 10513 10512 10510 10509 10508 10507 10506 10505 10504 10502 10500 10498 10496 10494 10491 10488 10486 10485 10486 10487 10490 10491 10491 10493 10498 10502 10508 10513 10513 10518 10523 10528 10536 10544 10552 10561 10569 10579 10591 10600 10606 10613 10623 10633 10646 10661 10673 10684 10701 10715 10720 10726 10738 10755 10767 10776 10792 10805 10810 10819 10831 10839 10842 10838 10831 10835 10848 10858 10868 10878 10883 10890 10900 10906 10910 10913
10528 10526 10524 10522 10520 10518 10516 10515 10514 10512 10511 10509 10508 10506 10505 10503 10503 10502 10501 10499 10497 10495 10492 10489 10487 10484 10480 10478 10477 10476 10476 10476 10478 10480 10480 10482 10486 10490 10495 10499 10502 10507 10511 10516 10524 10531 10538 10548 10554 10564 10577 10585 10590 10598 10611 10623 10635 10649 10662 10676 10690 10701 10709 10720 10734 10748 10760 10772 10785 10791 10797 10811 10821 10823 10828 10825 10819 10829 10845 10856 10868 10876 10880 10888 10896 10898 10900 10903
10523 10521 10519 10517 10515 10513 10511 10510 10508 10507 10506 10504 10503 10501 10499 10498 10497 10496 10495 10493 10491 10488 10485 10481 10478 10474 10470 10468 10468 10468 10467 10466 10466 10468 10470 10472 10475 10478 10482 10486 10491 10495 10499 10504 10511 10518 10526 10535 10541 10550 10563 10571 10577 10587 10599 10611 10624 10637 10651 10664 10674 10685 10697 10712 10729 10747 10762 10771 10776 10779 10790 10804 10808 10810 10818 10816 10812 10825 10839 10847 10859 10869 10873 10879 10886 10889 10893 10898
10519 10517 10514 10512 10510 10508 10506 10505 10503 10502 10501 10499 10498 10496 10494 10492 10491 10490 10488 10486 10483 10480 10477 10473 10469 10466 10462 10460 10460 10458 10457 10456 10456 10457 10459 10461 10464 10467 10470 10475 10479 10484 10488 10493 10499 10506 10514 10523 10530 10538 10550 10561 10568 10575 10586 10599 10612 10623 10637 10650 10660 10672 10686 10702 10721 10739 10751 10760 10766 10773 10787 10797 10798 10803 10812 10809 10807 10819 10828 10835 10851 10864 10868 10872 10878 10883 10889 10894
10515 10513 10510 10508 10506 10504 10502 10500 10498 10497 10496 10494 10493 10491 10489 10486 10485 10484 10483 10480 10477 10473 10469 10465 10461 10458 10455 10453 10451 10449 10448 10447 10446 10448 10450 10452 10454 10457 10460 10464 10468 10474 10478 10483 10489 10495 10503 10512 10518 10526 10539 10551 10557 10563 10573 10584 10593 10605 10623 10639 10650 10662 10677 10693 10710 10725 10736 10746 10755 10768 10783 10788 10787 10796 10805 10802 10803 10812 10820 10830 10845 10855 10859 10865 10873 10879 10883 10886